This demonstration page uses our WeatherBlox Daily Observations layout. Learn more.

Left ArrowRight Arrow

44.31136, -96.79839

Hourly Observations for August 31, 2022

Temp ( °F °C ) Dew Point ( °F °C ) Humidity (%) Winds ( mph kmh ) Pressure ( in mb ) Visibility ( mi km ) Precip ( " mm )
12:56 am 00:56 Clear N/A N/A N/A SSW 3 6 30.18 1022 10 16 0.00 0.00
1:56 am 01:56 Clear N/A N/A N/A S 7 11 30.18 1022 10 16 0.00 0.00
2:56 am 02:56 Clear N/A N/A N/A S 7 11 30.18 1022 10 16 0.00 0.00
3:56 am 03:56 Clear N/A N/A N/A S 6 9 30.18 1022 10 16 0.00 0.00
4:56 am 04:56 Clear N/A N/A N/A SE 5 7 30.18 1022 10 16 0.00 0.00
5:56 am 05:56 Clear N/A N/A N/A SE 5 7 30.17 1022 10 16 0.00 0.00
6:56 am 06:56 Sunny N/A N/A N/A SE 7 11 30.17 1022 10 16 0.00 0.00
7:56 am 07:56 Sunny N/A N/A N/A ESE 7 11 30.16 1021 10 16 0.00 0.00
8:56 am 08:56 Sunny N/A N/A N/A S 6 9 30.16 1021 10 16 0.00 0.00
9:56 am 09:56 Sunny N/A N/A N/A SSW 7 11 30.15 1021 10 16 0.00 0.00
10:56 am 10:56 Sunny N/A N/A N/A S 9 15 30.14 1021 10 16 0.00 0.00
11:56 am 11:56 Sunny N/A N/A N/A S 10 17 30.14 1021 10 16 0.00 0.00
12:56 pm 12:56 Sunny N/A N/A N/A S 12 19 30.12 1020 10 16 0.00 0.00
1:56 pm 13:56 Sunny N/A N/A N/A S 9 15 30.11 1019 10 16 0.00 0.00
2:56 pm 14:56 Sunny N/A N/A N/A ESE 7 11 30.10 1019 10 16 0.00 0.00
3:56 pm 15:56 Sunny N/A N/A N/A SSE 5 7 30.08 1018 10 16 0.00 0.00
4:56 pm 16:56 Sunny N/A N/A N/A ESE 7 11 30.07 1018 10 16 0.00 0.00
5:56 pm 17:56 Sunny N/A N/A N/A S 8 13 30.07 1018 10 16 0.00 0.00
6:56 pm 18:56 Sunny N/A N/A N/A S 7 11 30.07 1018 10 16 0.00 0.00
7:56 pm 19:56 Sunny N/A N/A N/A SSE 6 9 30.06 1018 10 16 0.00 0.00
8:56 pm 20:56 Clear N/A N/A N/A S 9 15 30.08 1018 10 16 0.00 0.00
9:56 pm 21:56 Clear N/A N/A N/A Calm 30.09 1019 10 16 0.00 0.00
10:56 pm 22:56 Clear N/A N/A N/A NE 5 7 30.09 1019 10 16 0.00 0.00
11:56 pm 23:56 Clear N/A N/A N/A ENE 5 7 30.08 1018 10 16 0.00 0.00

Powered by AerisWeather